Location: Csohesd
(46.2500°N, 22.6167°E)
Time: 05:33:17
(UTC+00:00)

Cosmos 1758 - Pass Details

Date: 21 October 2021
Orbit: 540 x 560 km, 82.5° (Epoch: 04 December)

Event Time Altitude Azimuth Distance (km) Brightness Sun altitude
Rises 16:03:39 0° 195° (SSW) 2,698 7.2 -6.1°
Reaches altitude 10° 16:05:49 10° 199° (SSW) 1,807 6.4 -6.5°
Maximum altitude 16:09:45 63° 280° (W) 610 3.9 -7.1°
Drops below altitude 10° 16:13:43 10° 3° (N) 1,815 5.9 -7.8°
Sets 16:15:54 0° 7° (N) 2,711 6.7 -8.2°
